Location: Guferjoch
(46.7462°N, 8.4506°E)
Time: 12:56:55
(UTC+00:00)

Cosmos 1441 Rocket - Pass Details

Date: 14 July 2020
Orbit: 495 x 541 km, 81.1° (Epoch: 06 August)

Event Time Altitude Azimuth Distance (km) Brightness Sun altitude
Exits shadow 00:10:54 44° 260° (W) 747 3.8 -21.1°
Maximum altitude 00:11:24 47° 285° (WNW) 716 3.8 -21.0°
Drops below altitude 10° 00:15:14 10° 0° (N) 1,796 7.1 -20.9°
Sets 00:17:27 0° 7° (N) 2,685 8.4 -20.9°
